(153229) = 1995 YC20 = 2000 YE85

Discovered at Socorro on 2000-12-30 by LINEAR.

Orbit

Orbit type: Main Belt

Note: WebGL enabled browser required.

epoch2023-09-13.0
epoch JD2460200.5
perihelion date2021-08-04.37693
perihelion JD2459430.87693
argument of perihelion (°)289.44853
ascending node (°)152.40855
inclination (°)2.47171
eccentricity0.2354026
perihelion distance (AU)2.2858837
Tisserand w.r.t. Jupiter3.2
ΔV w.r.t. Earth (km/sec)9.6
semimajor axis (AU)2.9896568
mean anomaly (°)146.74047
mean daily motion (°/day)0.19066540
aphelion distance (AU)3.693
period (years)5.17
P-vector [x]0.14123646
P-vector [y]0.92369426
P-vector [z]0.35614768
Q-vector [x]-0.98977436
Q-vector [y]0.12449482
Q-vector [z]0.06962584
absolute magnitude15.65
phase slope0.15
uncertainty0
referenceMPEC 2023-X132
observations used1001
oppositions17
arc length (days)10044
first opposition used1995
last opposition used2023
residual rms (arc-secs)0.68
perturbers coarse indicatorM-v
perturbers precise indicator003Ek
first observation date used1995-12-18.0
last observation date used2023-06-18.0
computer nameMPCLINUX
JD of orbit computation2456847.870055
perihelion JD uncertainty (days)7.1850E-05
argument of perihelion uncertainty (°)9.5952E-05
ascending node uncertainty (°)9.4983E-05
inclination uncertainty (°)3.4837E-06
eccentricity uncertainty 3.8927E-08
perihelion distance uncertainty (AU)1.1960E-07
Minimum Orbit Intersection Distances (in AU)
for orbit epoch: 2460200.5, reference: E2023-XD2
Mercury1.98031
Venus1.56678
Earth1.30197
Mars0.72177
Jupiter1.57048
Saturn6.38836
Uranus15.3116
Neptune26.7487

Observations

1019 total observations over interval: 1995 12 18.29319 – 2023 06 18.333429
These data are available for download (format description).

Date (UT) J2000 RA J2000 Dec Magn Location Ref
1995 12 18.29319 08 29 12.56 +16 18 30.1 19.7 V 691 – Steward Observatory, Kitt Peak-Spacewatch MPS 79838
1995 12 18.31533 08 29 12.12 +16 18 32.2 19.1 V 691 – Steward Observatory, Kitt Peak-Spacewatch MPS 79838
1995 12 18.33695 08 29 11.69 +16 18 33.6 19.4 V 691 – Steward Observatory, Kitt Peak-Spacewatch MPS 79838
1995 12 23.25687 08 27 22.13 +16 25 56.3   691 – Steward Observatory, Kitt Peak-Spacewatch MPC 26531
1995 12 23.27841 08 27 21.54 +16 25 58.4 19.2 V 691 – Steward Observatory, Kitt Peak-Spacewatch MPC 26531
1995 12 23.30006 08 27 20.92 +16 26 01.0   691 – Steward Observatory, Kitt Peak-Spacewatch MPC 26531
1995 12 28.39683 08 24 43.14 +16 36 52.1 19.9 V 691 – Steward Observatory, Kitt Peak-Spacewatch MPS 79838
1995 12 28.41861 08 24 42.32 +16 36 55.3 20.1 V 691 – Steward Observatory, Kitt Peak-Spacewatch MPS 79838
1995 12 28.44428 08 24 41.39 +16 36 59.0 20.8 V 691 – Steward Observatory, Kitt Peak-Spacewatch MPS 79838
1995 12 29.32363 08 24 10.29 +16 39 09.2   691 – Steward Observatory, Kitt Peak-Spacewatch MPC 26531
1995 12 29.34566 08 24 09.48 +16 39 12.9   691 – Steward Observatory, Kitt Peak-Spacewatch MPC 26531
1995 12 29.36789 08 24 08.63 +16 39 16.3 19.2 V 691 – Steward Observatory, Kitt Peak-Spacewatch MPC 26531
1999 09 07.29855 21 48 27.94 -13 06 23.9 19.3 R 568 – Maunakea MPS 82647
1999 09 07.33260 21 48 26.42 -13 06 33.1   568 – Maunakea MPS 82647
1999 09 07.36660 21 48 24.91 -13 06 42.0   568 – Maunakea MPS 82647
2000 12 21.11398 06 29 18.22 +19 33 48.1 18.6 V 012 – Uccle MPS 34382
2000 12 21.12249 06 29 17.71 +19 33 48.1 18.4 V 012 – Uccle MPS 34382
2000 12 21.13144 06 29 17.25 +19 33 49.4 18.2 V 012 – Uccle MPS 34382
2000 12 30.29423 06 21 01.63 +19 45 46.4 18.2   704 – Lincoln Laboratory ETS, New Mexico MPS 24246
2000 12 30.30907 06 21 00.76 +19 45 47.7 17.8   704 – Lincoln Laboratory ETS, New Mexico MPS 24246
2000 12 30.32394 06 20 59.88 +19 45 48.9 18.2   704 – Lincoln Laboratory ETS, New Mexico MPS 24246
2000 12 30.33891 06 20 59.07 +19 45 51.0 19.0   704 – Lincoln Laboratory ETS, New Mexico MPS 24246
2000 12 30.35370 06 20 58.23 +19 45 51.3 18.5   704 – Lincoln Laboratory ETS, New Mexico MPS 24246
2001 01 03.22709 06 17 33.64 +19 51 34.5 18.4   704 – Lincoln Laboratory ETS, New Mexico MPS 24246
2001 01 03.24315 06 17 32.76 +19 51 36.6 18.8   704 – Lincoln Laboratory ETS, New Mexico MPS 24246
2001 01 03.25873 06 17 31.94 +19 51 37.6 19.0   704 – Lincoln Laboratory ETS, New Mexico MPS 24246
2001 01 03.27342 06 17 31.08 +19 51 38.7 18.9   704 – Lincoln Laboratory ETS, New Mexico MPS 24246
2001 01 03.29893 06 17 29.72 +19 51 42.0 18.5   704 – Lincoln Laboratory ETS, New Mexico MPS 24246
2002 04 08.27344 13 40 56.14 -07 32 34.7 19.9   644 – Palomar Mountain/NEAT MPS 54914
2002 04 08.34864 13 40 52.55 -07 32 12.3 19.9   644 – Palomar Mountain/NEAT MPS 54914
2002 04 08.41163 13 40 49.54 -07 31 53.5 20.0   644 – Palomar Mountain/NEAT MPS 54914
2002 04 10.30381 13 39 21.44 -07 22 28.5 19.6   704 – Lincoln Laboratory ETS, New Mexico MPS 54914
2002 04 10.31618 13 39 20.83 -07 22 24.6 19.8   704 – Lincoln Laboratory ETS, New Mexico MPS 54914
2002 04 10.32779 13 39 20.35 -07 22 21.0 20.0   704 – Lincoln Laboratory ETS, New Mexico MPS 54914
2005 09 29.44433 04 44 46.06 +19 05 32.2 19.1 V 703 – Catalina Sky Survey MPS 142495
2005 09 29.45147 04 44 46.28 +19 05 31.9 19.5 V 703 – Catalina Sky Survey MPS 142495
2005 09 29.45855 04 44 46.57 +19 05 31.7 19.2 V 703 – Catalina Sky Survey MPS 142495
2005 09 29.46566 04 44 46.86 +19 05 31.1 19.1 V 703 – Catalina Sky Survey MPS 142495
2005 10 28.31722 04 51 21.25 +18 34 48.6 19.2   704 – Lincoln Laboratory ETS, New Mexico MPS 147233
2005 10 28.32969 04 51 21.01 +18 34 48.7 19.9   704 – Lincoln Laboratory ETS, New Mexico MPS 147233
2005 10 28.34176 04 51 20.79 +18 34 46.2 20.0   704 – Lincoln Laboratory ETS, New Mexico MPS 147233
2005 10 28.35673 04 51 20.61 +18 34 45.8 19.8   704 – Lincoln Laboratory ETS, New Mexico MPS 147233
2005 10 28.36868 04 51 20.41 +18 34 43.1 19.5   704 – Lincoln Laboratory ETS, New Mexico MPS 147233
2005 10 29.41771 04 51 05.58 +18 32 55.3 18.4 V G96 – Mt. Lemmon Survey MPS 147233
2005 10 29.42461 04 51 05.43 +18 32 54.7 18.4 V G96 – Mt. Lemmon Survey MPS 147233
2005 10 29.43159 04 51 05.32 +18 32 53.9 18.4 V G96 – Mt. Lemmon Survey MPS 147233
2005 10 29.43848 04 51 05.22 +18 32 53.1 18.3 V G96 – Mt. Lemmon Survey MPS 147233
2005 10 30.41716 04 50 49.64 +18 31 10.2 18.9 R 644 – Palomar Mountain/NEAT MPS 147233
2005 10 30.43934 04 50 49.21 +18 31 07.7 18.7 R 644 – Palomar Mountain/NEAT MPS 147233
2005 10 30.46147 04 50 48.78 +18 31 05.7 19.0 R 644 – Palomar Mountain/NEAT MPS 147233
2005 11 05.41800 04 48 35.32 +18 19 59.7 19.0 V 691 – Steward Observatory, Kitt Peak-Spacewatch MPS 149210
2005 11 05.43535 04 48 34.80 +18 19 57.8 18.9 V 691 – Steward Observatory, Kitt Peak-Spacewatch MPS 149210
2005 11 05.45283 04 48 34.28 +18 19 55.6 18.9 V 691 – Steward Observatory, Kitt Peak-Spacewatch MPS 149210
2005 11 10.40988 04 45 56.91 +18 10 05.5 18.9 V 691 – Steward Observatory, Kitt Peak-Spacewatch MPS 149210
2005 11 10.42766 04 45 56.23 +18 10 03.3 19.0 V 691 – Steward Observatory, Kitt Peak-Spacewatch MPS 149210
2005 11 10.44536 04 45 55.56 +18 10 01.1 19.0 V 691 – Steward Observatory, Kitt Peak-Spacewatch MPS 149210
2005 11 15.45060 04 42 39.46 +17 59 45.3 18.5 R 644 – Palomar Mountain/NEAT MPS 150610
2005 11 15.47242 04 42 38.49 +17 59 42.8 18.4 R 644 – Palomar Mountain/NEAT MPS 150610
2005 11 15.49432 04 42 37.50 +17 59 39.2 19.2 R 644 – Palomar Mountain/NEAT MPS 150610
2005 11 21.40968 04 38 07.04 +17 47 27.4 18.0 V 703 – Catalina Sky Survey MPS 150610
2005 11 21.41619 04 38 06.64 +17 47 26.9 17.8 V 703 – Catalina Sky Survey MPS 150610
2005 11 21.42264 04 38 06.32 +17 47 25.8 18.0 V 703 – Catalina Sky Survey MPS 150610
2005 11 28.30675 04 32 16.60 +17 33 45.5 17.9 R 699 – Lowell Observatory-LONEOS MPS 151837
2005 11 28.32505 04 32 15.56 +17 33 43.7   699 – Lowell Observatory-LONEOS MPS 151837
2005 11 28.34335 04 32 14.50 +17 33 39.9   699 – Lowell Observatory-LONEOS MPS 151837
2005 11 28.36165 04 32 13.53 +17 33 38.8   699 – Lowell Observatory-LONEOS MPS 151837
2005 11 28.37156 04 32 13.02 +17 33 37.7 17.6 V 703 – Catalina Sky Survey MPS 151837
2005 11 28.38067 04 32 12.44 +17 33 36.6 17.7 V 703 – Catalina Sky Survey MPS 151837
2005 11 28.38977 04 32 11.94 +17 33 35.2 17.8 V 703 – Catalina Sky Survey MPS 151837
2005 11 28.39885 04 32 11.47 +17 33 34.0 17.8 V 703 – Catalina Sky Survey MPS 151837
2005 11 30.26050 04 30 33.74 +17 30 05.0 18.1   704 – Lincoln Laboratory ETS, New Mexico MPS 151837
2005 11 30.27463 04 30 33.00 +17 30 04.3 18.4   704 – Lincoln Laboratory ETS, New Mexico MPS 151837
2005 11 30.28739 04 30 32.28 +17 30 02.6 18.3   704 – Lincoln Laboratory ETS, New Mexico MPS 151837
2005 11 30.30005 04 30 31.57 +17 30 01.1 18.4   704 – Lincoln Laboratory ETS, New Mexico MPS 151837
2005 11 30.31270 04 30 30.87 +17 29 59.9 19.1   704 – Lincoln Laboratory ETS, New Mexico MPS 151837
2005 12 01.31867 04 29 37.75 +17 28 10.3 17.6 V G96 – Mt. Lemmon Survey MPS 151837
2005 12 01.32607 04 29 37.32 +17 28 09.5 17.6 V G96 – Mt. Lemmon Survey MPS 151837
2005 12 01.33344 04 29 36.92 +17 28 08.7 17.6 V G96 – Mt. Lemmon Survey MPS 151837
2005 12 01.34086 04 29 36.52 +17 28 07.9 17.7 V G96 – Mt. Lemmon Survey MPS 151837
2005 12 03.27189 04 27 54.72 +17 24 44.7 17.8   704 – Lincoln Laboratory ETS, New Mexico MPS 153419
2005 12 03.28473 04 27 54.03 +17 24 44.2 18.0   704 – Lincoln Laboratory ETS, New Mexico MPS 153419
2005 12 03.29766 04 27 53.29 +17 24 43.3 18.0   704 – Lincoln Laboratory ETS, New Mexico MPS 153419
2005 12 05.28489 04 26 09.19 +17 21 24.7 17.7 R 699 – Lowell Observatory-LONEOS MPS 153419
2005 12 05.30685 04 26 08.02 +17 21 22.6   699 – Lowell Observatory-LONEOS MPS 153419
2005 12 05.32879 04 26 06.82 +17 21 20.3   699 – Lowell Observatory-LONEOS MPS 153419
2005 12 05.35076 04 26 05.64 +17 21 18.1   699 – Lowell Observatory-LONEOS MPS 153419
2005 12 07.26297 04 24 26.98 +17 18 21.9 17.8   704 – Lincoln Laboratory ETS, New Mexico MPS 153419
2005 12 07.27675 04 24 26.23 +17 18 20.9 18.2   704 – Lincoln Laboratory ETS, New Mexico MPS 153419
